This demonstration page uses our WeatherBlox Daily Observations layout. Learn more.

Left ArrowRight Arrow

34.16533, -84.80231

Hourly Observations for October 30, 2015

Temp ( °F °C ) Dew Point ( °F °C ) Humidity (%) Winds ( mph kmh ) Pressure ( in mb ) Visibility ( mi km ) Precip ( " mm )
12:35 am 00:35 Clear with Mist and Fog 48 8.9 47 8.3 96 96 Calm 30.03 1017 2 3 0.00 0.00
12:49 am 00:49 Clear with Mist and Fog 48 9 48 9 100 100 Calm 30.03 1017 3 5 0.00 0.00
12:53 am 00:53 Clear 46 7.8 45 7.2 96 96 Calm 29.97 1015 7 11 0.00 0.00
1:46 am 01:46 Clear with Mist and Fog 47 8.3 46 7.8 97 97 Calm 30.03 1017 2 3 0.00 0.00
1:53 am 01:53 Clear with Mist and Fog 46 7.8 46 7.8 100 100 Calm 29.97 1015 1 1 0.00 0.00
2:03 am 02:03 Clear with Mist and Fog 46 7.8 46 7.8 100 100 Calm 30.03 1017 2 3 0.00 0.00
2:11 am 02:11 Clear with Mist and Fog 45 7.2 45 7.2 100 100 Calm 30.03 1017 5 8 0.00 0.00
2:50 am 02:50 Partly Cloudy 46 8 45 7 93 93 Calm 30.03 1017 9 14 0.00 0.00
2:53 am 02:53 Partly Cloudy 46 7.8 45 7.2 96 96 Calm 29.98 1015 8 13 0.00 0.00
3:53 am 03:53 Clear 46 7.8 45 7.2 96 96 Calm 30.00 1016 10 16 0.00 0.00
4:53 am 04:53 Clear 46 7.8 45 7.2 96 96 Calm 30.00 1016 9 14 0.00 0.00
5:53 am 05:53 Clear 46 7.8 45 7.2 96 96 Calm 30.03 1017 10 16 0.00 0.00
6:53 am 06:53 Clear 44 6.7 43 6.1 96 96 Calm 30.05 1018 10 16 0.00 0.00
7:53 am 07:53 Clear 44 6.7 43 6.1 96 96 Calm 30.06 1018 10 16 0.00 0.00
8:53 am 08:53 Sunny 46 7.8 45 7.2 96 96 Calm 30.08 1019 10 16 0.00 0.00
9:53 am 09:53 Sunny 51 10.6 45 7.2 80 80 Calm 30.09 1019 10 16 0.00 0.00
10:53 am 10:53 Sunny 56 13.3 45 7.2 67 67 Calm 30.10 1019 10 16 0.00 0.00
11:53 am 11:53 Sunny 60 15.6 37 2.8 42 42 VRB 6 9 30.09 1019 10 16 0.00 0.00
12:53 pm 12:53 Sunny 64 17.8 37 2.8 37 37 VRB 6 9 30.10 1019 10 16 0.00 0.00
1:53 pm 13:53 Sunny 66 18.9 38 3.3 36 36 N 5 7 30.08 1019 10 16 0.00 0.00
2:53 pm 14:53 Sunny 66 18.9 38 3.3 36 36 N 8 13 30.06 1018 10 16 0.00 0.00
3:53 pm 15:53 Sunny 67 19.4 40 4.4 37 37 VRB 5 7 30.03 1017 10 16 0.00 0.00
4:53 pm 16:53 Sunny 68 20 42 5.6 39 39 N 6 9 30.03 1017 10 16 0.00 0.00
5:53 pm 17:53 Sunny 63 17.2 43 6.1 48 48 VRB 3 6 30.03 1017 10 16 0.00 0.00
6:53 pm 18:53 Clear 51 10.6 48 8.9 89 89 Calm 30.03 1017 10 16 0.00 0.00
7:53 pm 19:53 Clear 49 9.4 46 7.8 90 90 Calm 30.06 1018 10 16 0.00 0.00
8:53 pm 20:53 Clear 48 8.9 46 7.8 93 93 Calm 30.06 1018 10 16 0.00 0.00
9:53 pm 21:53 Clear 46 7.8 45 7.2 96 96 Calm 30.07 1018 10 16 0.00 0.00
10:53 pm 22:53 Clear 47 8.3 46 7.8 97 97 Calm 30.07 1018 10 16 0.00 0.00
11:53 pm 23:53 Clear 46 7.8 45 7.2 96 96 Calm 30.08 1019 10 16 0.00 0.00

Powered by AerisWeather